Aurora, NE

5:47 PM CST on February 08, 2016 (GMT -0600)
Aurora Municipal

Weather History for KAUH - October, 2013

Change the Weather History Date:

Saturday, October 5, 2013

  Actual Average Record
Temperature  
Mean Temperature 44 °F -  
Max Temperature 50 °F 70 °F 88 °F (1987)
Min Temperature 40 °F 44 °F 28 °F (2000)
Degree Days  
Heating Degree Days 20    
Moisture  
Dew Point 33 °F    
Average Humidity 66    
Maximum Humidity 90    
Minimum Humidity 51    
Precipitation  
Precipitation 0.01 in - - ()
Sea Level Pressure  
Sea Level Pressure 29.92 in    
Wind  
Wind Speed 14 mph (West)    
Max Wind Speed 25 mph    
Max Gust Speed 34 mph    
Visibility 10 miles    
Events Rain    
Averages and records for this station are not official NWS values.
T = Trace of Precipitation, MM = Missing Value Source: NWS Daily Summary

Daily Weather History Graph

Daily Weather History Graph

Search for Another Location

Airport or City:

Trip Planner

Search our weather history database for the weather conditions in past years. The results will help you decide how hot, cold, wet, or windy it might be!

Date:

Astronomy

Oct. 05, 2013 Rise Set
Actual Time 7:32 AM CDT 7:06 PM CDT
Civil Twilight 7:05 AM CDT 7:34 PM CDT
Nautical Twilight 6:33 AM CDT 8:05 PM CDT
Astronomical Twilight 6:01 AM CDT 8:37 PM CDT
Moon 8:14 AM CDT (10/5) 7:26 PM CDT (10/5)
Length of Visible Light 12h 28m
Length of Day
11h 33m
New Moon, 1% of the Moon is Illuminated
Oct 5
New Moon
Oct 11
First Quarter
Oct 18
Full
Oct 26
Last Quarter
Nov 3
New

Hourly Weather History & Observations

Time (CDT) Temp. Windchill Dew Point Humidity Pressure Visibility Wind Dir Wind Speed Gust Speed Precip Events Conditions
12:15 AM 42.6 °F 35.6 °F 32.0 °F 66% 29.95 in 10.0 mi West 13.8 mph 20.7 mph N/A   Clear
12:35 AM 42.3 °F 35.1 °F 32.0 °F 67% 29.95 in 10.0 mi West 13.8 mph 19.6 mph N/A   Clear
12:55 AM 42.4 °F 36.1 °F 32.0 °F 67% 29.96 in 10.0 mi West 11.5 mph 19.6 mph N/A   Clear
1:15 AM 42.4 °F 36.1 °F 32.0 °F 67% 29.96 in 10.0 mi West 11.5 mph 21.9 mph N/A   Clear
1:35 AM 43.0 °F 36.0 °F 31.5 °F 64% 29.96 in 10.0 mi West 13.8 mph 21.9 mph N/A   Scattered Clouds
1:55 AM 43.2 °F 36.6 °F 31.5 °F 63% 29.96 in 10.0 mi West 12.7 mph 20.7 mph N/A   Scattered Clouds
2:15 AM 42.8 °F 37.0 °F 31.5 °F 64% 29.96 in 10.0 mi West 10.4 mph 19.6 mph N/A   Scattered Clouds
2:35 AM 42.3 °F 36.3 °F 31.6 °F 66% 29.96 in 10.0 mi WSW 10.4 mph 16.1 mph N/A   Clear
2:55 AM 42.3 °F 36.3 °F 31.8 °F 67% 29.95 in 10.0 mi West 10.4 mph - N/A   Clear
3:15 AM 42.3 °F 35.9 °F 31.8 °F 67% 29.95 in 10.0 mi West 11.5 mph 16.1 mph N/A   Clear
3:35 AM 42.3 °F 35.9 °F 32.0 °F 67% 29.93 in 10.0 mi West 11.5 mph 19.6 mph N/A   Clear
3:55 AM 41.9 °F 35.9 °F 32.0 °F 68% 29.94 in 10.0 mi West 10.4 mph 18.4 mph N/A   Clear
4:15 AM 41.4 °F 34.7 °F 32.0 °F 69% 29.93 in 10.0 mi West 11.5 mph 20.7 mph N/A   Clear
4:35 AM 41.2 °F 34.5 °F 32.0 °F 70% 29.92 in 10.0 mi West 11.5 mph 19.6 mph N/A   Clear
4:55 AM 41.0 °F 34.3 °F 32.2 °F 71% 29.93 in 10.0 mi WSW 11.5 mph 16.1 mph N/A   Clear
5:15 AM 41.0 °F 34.7 °F 32.0 °F 70% 29.93 in 10.0 mi West 10.4 mph 20.7 mph N/A   Clear
5:35 AM 40.6 °F 34.8 °F 32.0 °F 71% 29.93 in 10.0 mi WSW 9.2 mph - N/A   Clear
5:55 AM 40.5 °F 33.6 °F 32.0 °F 72% 29.92 in 10.0 mi WSW 11.5 mph - N/A   Clear
6:15 AM 40.3 °F 32.6 °F 32.0 °F 72% 29.93 in 10.0 mi WSW 13.8 mph 18.4 mph N/A   Clear
6:35 AM 40.5 °F 33.2 °F 32.0 °F 72% 29.95 in 10.0 mi WSW 12.7 mph 18.4 mph N/A   Clear
6:55 AM 40.6 °F 33.4 °F 32.0 °F 71% 29.94 in 10.0 mi WSW 12.7 mph 18.4 mph N/A   Clear
7:15 AM 40.3 °F 34.4 °F 32.0 °F 72% 29.93 in 10.0 mi WSW 9.2 mph - N/A   Clear
7:35 AM 40.3 °F 33.4 °F 32.0 °F 72% 29.93 in 10.0 mi WSW 11.5 mph 17.3 mph N/A   Clear
7:55 AM 40.1 °F 32.7 °F 32.0 °F 73% 29.93 in 10.0 mi WSW 12.7 mph 17.3 mph N/A   Clear
8:15 AM 40.8 °F 34.1 °F 32.0 °F 71% 29.93 in 10.0 mi WSW 11.5 mph 18.4 mph N/A   Clear
8:35 AM 41.9 °F 34.6 °F 32.2 °F 68% 29.93 in 10.0 mi WSW 13.8 mph 20.7 mph N/A   Clear
8:55 AM 43.0 °F 36.4 °F 32.0 °F 65% 29.93 in 10.0 mi WSW 12.7 mph 21.9 mph N/A   Mostly Cloudy
9:15 AM 44.1 °F 37.4 °F 32.2 °F 63% 29.92 in 10.0 mi West 13.8 mph 25.3 mph N/A   Mostly Cloudy
9:35 AM 44.6 °F 36.9 °F 32.0 °F 61% 29.92 in 10.0 mi WSW 18.4 mph 27.6 mph N/A   Mostly Cloudy
9:55 AM 45.7 °F 38.6 °F 32.0 °F 59% 29.92 in 10.0 mi West 17.3 mph 26.5 mph N/A   Mostly Cloudy
10:15 AM 45.5 °F 38.1 °F 32.0 °F 59% 29.92 in 10.0 mi West 18.4 mph 27.6 mph N/A   Overcast
10:35 AM 46.2 °F 39.3 °F 31.6 °F 57% 29.93 in 10.0 mi West 17.3 mph 26.5 mph N/A   Overcast
10:55 AM 46.6 °F - 31.1 °F 55% 29.93 in 10.0 mi WNW 16.1 mph 29.9 mph N/A   Overcast
11:15 AM 46.8 °F - 31.1 °F 55% 29.93 in 10.0 mi West 17.3 mph 32.2 mph N/A   Overcast
11:35 AM 46.8 °F - 31.1 °F 55% 29.93 in 10.0 mi West 15.0 mph 32.2 mph N/A   Overcast
11:55 AM 49.1 °F - 31.8 °F 51% 29.92 in 10.0 mi West 25.3 mph 33.4 mph N/A   Overcast
12:15 PM 48.4 °F - 31.5 °F 52% 29.93 in 10.0 mi West 19.6 mph 34.5 mph N/A   Overcast
12:35 PM 48.7 °F - 31.8 °F 52% 29.92 in 10.0 mi West 20.7 mph 33.4 mph N/A   Overcast
12:55 PM 48.2 °F - 31.6 °F 53% 29.93 in 10.0 mi West 23.0 mph 32.2 mph N/A   Overcast
1:15 PM 48.0 °F - 32.0 °F 54% 29.92 in 10.0 mi West 19.6 mph 31.1 mph N/A   Overcast
1:35 PM 48.0 °F - 32.0 °F 54% 29.92 in 10.0 mi West 19.6 mph 31.1 mph N/A   Overcast
1:55 PM 46.8 °F - 32.2 °F 57% 29.92 in 10.0 mi West 16.1 mph 33.4 mph N/A   Overcast
2:15 PM 45.0 °F 37.9 °F 34.2 °F 66% 29.92 in 10.0 mi West 16.1 mph 28.8 mph N/A   Light Drizzle
2:35 PM 46.2 °F 39.0 °F 34.2 °F 63% 29.90 in 10.0 mi West 18.4 mph 28.8 mph N/A   Overcast
2:55 PM 46.4 °F 39.2 °F 32.5 °F 59% 29.90 in 10.0 mi West 18.4 mph 27.6 mph N/A   Overcast
3:15 PM 47.3 °F - 31.8 °F 55% 29.89 in 10.0 mi West 17.3 mph 32.2 mph N/A   Overcast
3:35 PM 46.6 °F - 32.0 °F 57% 29.89 in 10.0 mi West 21.9 mph 32.2 mph N/A   Overcast
3:55 PM 47.5 °F - 32.0 °F 55% 29.88 in 10.0 mi West 21.9 mph 29.9 mph N/A   Overcast
4:15 PM 45.9 °F 39.1 °F 32.5 °F 60% 29.89 in 10.0 mi WNW 16.1 mph 32.2 mph N/A   Overcast
4:35 PM 43.7 °F 38.1 °F 35.8 °F 74% 29.89 in 10.0 mi WSW 10.4 mph 19.6 mph N/A   Light Drizzle
4:55 PM 45.9 °F 38.0 °F 32.0 °F 58% 29.89 in 10.0 mi WNW 20.7 mph 28.8 mph N/A   Overcast
5:15 PM 46.0 °F 38.0 °F 32.0 °F 58% 29.89 in 10.0 mi WNW 21.9 mph 27.6 mph N/A   Overcast
5:35 PM 45.5 °F 37.6 °F 32.0 °F 59% 29.89 in 10.0 mi WNW 20.7 mph 27.6 mph N/A   Overcast
5:55 PM 45.1 °F 39.1 °F 32.0 °F 60% 29.89 in 10.0 mi WNW 12.7 mph 26.5 mph N/A   Overcast
6:15 PM 45.0 °F 36.9 °F 32.0 °F 60% 29.90 in 10.0 mi WNW 20.7 mph 32.2 mph N/A   Overcast
6:35 PM 43.9 °F 35.7 °F 32.2 °F 63% 29.89 in 10.0 mi WNW 19.6 mph 33.4 mph N/A   Overcast
6:55 PM 43.7 °F 37.3 °F 32.7 °F 65% 29.89 in 10.0 mi WNW 12.7 mph 27.6 mph N/A   Overcast
7:15 PM 43.7 °F 35.0 °F 32.9 °F 66% 29.89 in 10.0 mi WNW 21.9 mph 33.4 mph N/A   Overcast
7:35 PM 43.2 °F 34.0 °F 32.7 °F 67% 29.90 in 10.0 mi WNW 23.0 mph 32.2 mph N/A   Overcast
7:55 PM 43.2 °F 34.5 °F 32.4 °F 66% 29.90 in 10.0 mi WNW 20.7 mph 31.1 mph N/A   Overcast
8:15 PM 43.0 °F 34.8 °F 32.7 °F 67% 29.90 in 10.0 mi WNW 18.4 mph 28.8 mph N/A   Overcast
8:35 PM 41.5 °F 32.9 °F 34.5 °F 76% 29.90 in 10.0 mi WNW 18.4 mph 25.3 mph N/A   Overcast
8:55 PM 41.2 °F 32.7 °F 35.2 °F 79% 29.90 in 10.0 mi WNW 17.3 mph 25.3 mph N/A   Overcast
9:15 PM 41.4 °F 33.3 °F 35.6 °F 80% 29.90 in 10.0 mi WNW 16.1 mph 27.6 mph N/A   Overcast
9:35 PM 41.5 °F 33.5 °F 35.6 °F 79% 29.90 in 10.0 mi WNW 16.1 mph 23.0 mph N/A   Overcast
9:55 PM 41.9 °F 33.7 °F 35.1 °F 77% 29.89 in 10.0 mi West 17.3 mph 26.5 mph N/A   Overcast
10:15 PM 41.9 °F 34.6 °F 35.1 °F 77% 29.89 in 10.0 mi WNW 13.8 mph 26.5 mph N/A   Overcast
10:35 PM 41.9 °F 35.0 °F 35.2 °F 77% 29.89 in 10.0 mi WNW 12.7 mph 27.6 mph N/A   Overcast
10:55 PM 41.5 °F 33.5 °F 36.5 °F 82% 29.89 in 10.0 mi WNW 16.1 mph 26.5 mph N/A Rain Light Rain
11:15 PM 40.6 °F 32.7 °F 37.6 °F 89% 29.89 in 7.0 mi WNW 15.0 mph 26.5 mph 0.01 in Rain Light Rain
11:35 PM 40.6 °F 32.7 °F 37.8 °F 89% 29.89 in 10.0 mi WNW 15.0 mph 21.9 mph 0.01 in Rain Light Rain
11:55 PM 40.8 °F 32.6 °F 38.1 °F 90% 29.88 in 10.0 mi WNW 16.1 mph 24.2 mph 0.01 in   Overcast